Location: Unspecified
(0.0000°N, 0.0000°E)
Time: 07:23:46
(UTC+00:00)

Hubble Space Telescope - Pass Details

Date: 17 October 2019
Orbit: 536 x 540 km, 28.5° (Epoch: 14 October)

Event Time Altitude Azimuth Distance (km) Brightness Sun altitude
Rises 18:35:18 0° 306° (NW) 2,670 5.0 -12.3°
Reaches altitude 10° 18:37:34 10° 309° (NW) 1,782 4.0 -12.9°
Maximum altitude 18:41:39 62° 31° (NNE) 601 0.8 -13.9°
Enters shadow 18:44:10 22° 106° (ESE) 1,195 2.0 -14.5°
